This demonstration page uses our WeatherBlox Daily Observations layout. Learn more.

Left ArrowRight Arrow

Hourly Observations for August 24, 2015

Temp ( °F °C ) Dew Point ( °F °C ) Humidity (%) Winds ( mph kmh ) Pressure ( in mb ) Visibility ( mi km ) Precip ( " mm )
12:53 am 00:53 Clear 72 22.2 65 18.3 79 79 NW 3 6 29.98 1015 10 16 0.00 0.00
1:53 am 01:53 Clear 71 21.7 65 18.3 81 81 W 3 6 29.98 1015 10 16 0.00 0.00
2:53 am 02:53 Clear 71 21.7 65 18.3 81 81 W 7 11 29.99 1016 10 16 0.00 0.00
3:53 am 03:53 Clear 70 21.1 66 18.9 87 87 N 7 11 30.02 1017 10 16 0.00 0.00
4:53 am 04:53 Clear 69 20.6 66 18.9 90 90 N 5 7 30.03 1017 10 16 0.00 0.00
5:53 am 05:53 Clear 70 21.1 66 18.9 87 87 ENE 10 17 30.04 1017 10 16 0.00 0.00
6:53 am 06:53 Clear 68 20 58 14.4 70 70 ENE 13 20 30.06 1018 10 16 0.00 0.00
7:53 am 07:53 Sunny 67 19.4 58 14.4 73 73 NNE 7 11 30.10 1019 10 16 0.00 0.00
8:53 am 08:53 Mostly Sunny 70 21.1 57 13.9 64 64 NE 9 15 30.10 1019 10 16 0.00 0.00
9:53 am 09:53 Sunny 73 22.8 59 15 62 62 ENE 9 15 30.11 1020 10 16 0.00 0.00
10:53 am 10:53 Sunny 77 25 62 16.7 60 60 E 7 11 30.10 1019 10 16 0.00 0.00
11:53 am 11:53 Partly Cloudy 80 26.7 64 17.8 58 58 SE 7 11 30.09 1019 10 16 0.00 0.00
12:53 pm 12:53 Sunny 84 28.9 65 18.3 53 53 VRB 3 6 30.06 1018 10 16 0.00 0.00
1:53 pm 13:53 Sunny 87 30.6 66 18.9 50 50 SE 8 13 30.03 1017 10 16 0.00 0.00
2:53 pm 14:53 Sunny 90 32.2 65 18.3 44 44 E 7 11 30.00 1016 10 16 0.00 0.00
3:53 pm 15:53 Partly Cloudy 91 32.8 64 17.8 41 41 SE 8 13 29.98 1015 10 16 0.00 0.00
4:53 pm 16:53 Mostly Sunny 92 33.3 63 17.2 38 38 VRB 5 7 29.95 1014 10 16 0.00 0.00
5:53 pm 17:53 Sunny 93 33.9 61 16.1 34 34 ESE 10 17 29.93 1014 10 16 0.00 0.00
6:17 pm 18:17 Partly Cloudy with Nearby Thunderstorms 91 32.8 60 15.6 35 35 SSE 10 17 29.83 1010 10 16 0.00 0.00
6:53 pm 18:53 Partly Cloudy with Nearby Thunderstorms 91 32.8 60 15.6 35 35 SSE 16 26 29.92 1013 10 16 0.00 0.00
7:01 pm 19:01 Sunny 91 32.8 61 16.1 37 37 SSE 9 15 29.83 1010 10 16 0.00 0.00
7:53 pm 19:53 Sunny 91 32.8 53 11.7 27 27 Calm 29.91 1013 10 16 0.00 0.00
8:53 pm 20:53 Clear 86 30 62 16.7 45 45 ENE 3 6 29.94 1014 10 16 0.00 0.00
9:53 pm 21:53 Clear 83 28.3 64 17.8 53 53 E 12 19 29.97 1015 10 16 0.00 0.00
10:53 pm 22:53 Clear 81 27.2 61 16.1 51 51 E 8 13 29.98 1015 10 16 0.00 0.00
11:53 pm 23:53 Clear 78 25.6 61 16.1 56 56 E 7 11 29.98 1015 10 16 0.00 0.00

Powered by AerisWeather